Tracking 24122 objects as of 9-Dec-2021
HD Live streaming from Space Station
objects crossing your sky now

OPS 4682 DEB

Track OPS 4682 DEB now!
10-day predictions


NORAD ID: 38433
Int'l Code: 1965-027EN
Perigee: 1,210.5 km
Apogee: 1,252.8 km
Inclination: 90.3 °
Period: 110.0 minutes
Semi major axis: 7602 km
RCS: 0.0136 m2 (small)
Launch date: April 3, 1965
Source: United States (US)
Launch site: AIR FORCE WESTERN TEST RANGE (AFWTR)

Note: This is SATELLITE DEBRIS
aabbcc
Your satellite tracking list
Your tracking list is empty




NASA's NSSDC Master Catalog

Two Line Element Set (TLE):
1 38433U 65027EN  21341.92639963 -.00000421  00000-0 -12388-2 0  9992
2 38433  90.2730 333.1883 0027858 314.3946  45.4901 13.09650811924612
Source of the keplerian elements: AFSPC